Louisville Bowman, KY

4:41 AM EDT on August 17, 2017 (GMT -0400)
Bowman

Weather History for KLOU - May, 2013

Change the Weather History Date:

Thursday, May 30, 2013

  Actual Average Record
Temperature  
Mean Temperature 80 °F 70 °F  
Max Temperature 88 °F 80 °F 92 °F (1953)
Min Temperature 71 °F 61 °F 41 °F (1984)
Degree Days  
Heating Degree Days 0 1  
Month to date heating degree days 66 73  
Since 1 July heating degree days 4329 4264  
Cooling Degree Days 15 6  
Month to date cooling degree days 138 107  
Year to date cooling degree days 175 141  
Growing Degree Days 30 (Base 50)    
Moisture  
Dew Point 64 °F    
Average Humidity 60    
Maximum Humidity 69    
Minimum Humidity 50    
Precipitation  
Precipitation 0.00 in 0.14 in 0.95 in (2004)
Month to date precipitation 3.52 4.98  
Year to date precipitation 18.11 19.78  
Sea Level Pressure  
Sea Level Pressure 30.06 in    
Wind  
Wind Speed 7 mph (SSE)    
Max Wind Speed 17 mph    
Max Gust Speed 24 mph    
Visibility 10 miles    
Events      
T = Trace of Precipitation, MM = Missing Value Source: NWS Daily Summary

Daily Weather History Graph

Daily Weather History Graph

Search for Another Location

Airport or City:

Trip Planner

Search our weather history database for the weather conditions in past years. The results will help you decide how hot, cold, wet, or windy it might be!

Date:

Astronomy

May. 30, 2013 Rise Set
Actual Time 6:21 AM EDT 8:59 PM EDT
Civil Twilight 5:50 AM EDT 9:29 PM EDT
Nautical Twilight 5:12 AM EDT 10:08 PM EDT
Astronomical Twilight 4:29 AM EDT 10:51 PM EDT
Moon 1:02 AM EDT (5/30) 12:26 PM EDT (5/30)
Length of Visible Light 15h 38m
Length of Day
14h 37m
Waning Gibbous, 62% of the Moon is Illuminated
May 30
Waning Gibbous
May 31
Last Quarter
Jun 8
New
Jun 16
First Quarter
Jun 23
Full

Hourly Weather History & Observations

Time (EDT) Temp. Heat Index Dew Point Humidity Pressure Visibility Wind Dir Wind Speed Gust Speed Precip Events Conditions
12:53 AM 75.9 °F - 64.0 °F 67% 30.04 in 10.0 mi SSE 4.6 mph - N/A   Clear
1:53 AM 75.0 °F - 64.0 °F 69% 30.06 in 10.0 mi Calm Calm - N/A   Clear
2:53 AM 73.9 °F - 62.1 °F 66% 30.06 in 10.0 mi South 3.5 mph - N/A   Clear
3:53 AM 73.0 °F - 61.0 °F 66% 30.08 in 10.0 mi Calm Calm - N/A   Clear
4:53 AM 72.0 °F - 61.0 °F 68% 30.08 in 10.0 mi Calm Calm - N/A   Partly Cloudy
5:53 AM 72.0 °F - 61.0 °F 68% 30.09 in 10.0 mi Calm Calm - N/A   Partly Cloudy
6:53 AM 72.0 °F - 61.0 °F 68% 30.10 in 10.0 mi SSE 3.5 mph - N/A   Clear
7:53 AM 73.0 °F - 62.1 °F 68% 30.12 in 10.0 mi SSE 4.6 mph - N/A   Clear
8:53 AM 75.0 °F - 63.0 °F 66% 30.13 in 10.0 mi SSE 6.9 mph - N/A   Clear
9:53 AM 79.0 °F - 64.0 °F 60% 30.12 in 10.0 mi South 10.4 mph 16.1 mph N/A   Partly Cloudy
10:53 AM 81.0 °F 82.2 °F 63.0 °F 54% 30.10 in 10.0 mi South 10.4 mph 20.7 mph N/A   Partly Cloudy
11:53 AM 82.0 °F 83.8 °F 64.9 °F 56% 30.10 in 10.0 mi South 9.2 mph - N/A   Scattered Clouds
12:53 PM 82.9 °F 84.6 °F 64.9 °F 54% 30.10 in 10.0 mi SSW 12.7 mph 18.4 mph N/A   Partly Cloudy
1:53 PM 84.9 °F 87.1 °F 66.0 °F 53% 30.07 in 10.0 mi South 11.5 mph - N/A   Scattered Clouds
2:53 PM 87.1 °F 89.2 °F 66.0 °F 49% 30.05 in 10.0 mi South 12.7 mph 19.6 mph N/A   Clear
3:53 PM 86.0 °F 88.2 °F 66.0 °F 51% 30.03 in 10.0 mi South 12.7 mph 19.6 mph N/A   Scattered Clouds
4:53 PM 87.1 °F 89.2 °F 66.0 °F 49% 30.02 in 10.0 mi SSE 12.7 mph 19.6 mph N/A   Partly Cloudy
5:53 PM 84.9 °F 87.6 °F 66.9 °F 55% 30.01 in 10.0 mi SSE 10.4 mph - N/A   Clear
6:53 PM 84.0 °F 86.3 °F 66.0 °F 55% 30.01 in 10.0 mi South 9.2 mph - N/A   Clear
7:53 PM 82.9 °F 85.0 °F 66.0 °F 56% 30.00 in 10.0 mi SSE 5.8 mph - N/A   Clear
8:53 PM 82.0 °F 83.8 °F 64.9 °F 56% 30.00 in 10.0 mi SE 8.1 mph 16.1 mph N/A   Clear
9:53 PM 80.1 °F 81.9 °F 64.9 °F 60% 30.01 in 10.0 mi SSE 4.6 mph - N/A   Clear
10:53 PM 78.1 °F - 64.9 °F 64% 30.04 in 10.0 mi Variable 5.8 mph - N/A   Clear
11:53 PM 77.0 °F - 64.9 °F 66% 30.04 in 10.0 mi SSE 5.8 mph - N/A   Clear